Home   Weather   Dornbirn   Past weeks

Flag for Austria Past Weather in Dornbirn, Vorarlberg, Austria — Yesterday and Last 2 Weeks

Now
50 °F

Scattered clouds.


Feels Like: 50 °F
Forecast: 48 / 72 °F
Wind: 2 mph from Southwest

Location: Bregenz

Current Time: Sep 28, 2016 at 9:08:18 AM

Latest Report: Sep 28, 2016 at 8:00 AM


Visibility: 11 mi

Pressure: 30.43 "Hg

Humidity: 93%

Dew Point: 48 °F

Location of DornbirnLocation

Past Weather in Dornbirn — Graph

°F

Dornbirn Temperature Yesterday

Maximum temperature yesterday: 68 °F (at 3:00 PM)
Minimum temperature yesterday: 55 °F (at 11:00 PM)
Average temperature yesterday: 60 °F

High & Low Weather Summary for the Past Weeks

 TemperatureHumidityPressure
High80 °F (Sep 14, 4:00 PM)98% (Sep 24, 9:00 AM)30.43 "Hg (Sep 24, 9:00 AM)
Low48 °F (Sep 24, 7:00 AM)36% (Sep 15, 10:00 AM)29.77 "Hg (Sep 15, 5:00 AM)
Average60 °F82%30.07 "Hg
* Reported Sep 13 8:00 AM — Sep 28 8:00 AM, Dornbirn, Weather by CustomWeather, © 2016

Note: Actual official high and low records may vary slightly from our data, if they occured in-between our weather recording intervals... More about our weather records

Advertising

Dornbirn Weather History for the Previous 24 Hours

Scroll right to see more
 ConditionsComfort  
Time TempWeatherWind HumidityBarometerVisibility
8:00 AM
Wed, Sep 28
50 °FScattered clouds.2 mph93%30.43 "Hg11 mi
7:00 AM52 °FPassing clouds.1 mph90%30.42 "Hg9 mi
6:00 AM50 °FCool.1 mph96%30.43 "HgN/A
5:00 AM51 °FCool.1 mph94%30.41 "HgN/A
4:00 AM52 °FCool.1 mph94%30.40 "HgN/A
3:00 AM53 °FCool.3 mph93%30.40 "HgN/A
2:00 AM53 °FCool.1 mph92%30.38 "HgN/A
1:00 AM54 °FCool.3 mph91%30.38 "HgN/A
12:00 AM54 °FCool.1 mph93%30.38 "HgN/A
11:00 PM
Tue, Sep 27
55 °FCool.1 mph92%30.38 "HgN/A
10:00 PM56 °FCool.1 mph91%30.37 "HgN/A
9:00 PM57 °FCool.1 mph88%30.36 "HgN/A
8:00 PM58 °FCool.2 mph86%30.33 "HgN/A
7:00 PM62 °FCool.1 mph78%30.31 "HgN/A
6:00 PM67 °FMild.1 mph56%30.28 "HgN/A
5:00 PM67 °FMild.2 mph59%30.27 "HgN/A
4:00 PM68 °FMild.2 mph55%30.26 "HgN/A
3:00 PM68 °FMild.1 mph51%30.26 "HgN/A
2:00 PM67 °FMild.2 mph64%30.27 "HgN/A
1:00 PM66 °FMild.1 mph62%30.28 "HgN/A
12:00 PM63 °FMild.2 mph68%30.29 "HgN/A
11:00 AM63 °FOvercast.3 mph74%30.28 "Hg6 mi
10:00 AM60 °FCool.1 mph85%30.28 "HgN/A
9:00 AM58 °FCool.1 mph91%30.25 "HgN/A
Weather by CustomWeather, © 2016

See weather overviewHow to use our weather pages